CYFB

Iqaluit Airport

ICAO Code CYFB
IATA Code YFB
Name Iqaluit Airport
Location Iqaluit, Nunavut, CA
Elevation 110 Feet / 33.5 Meters
Latitude 63.75666667
Longitude -68.55611111
METAR CYFB 012300Z 12005KT 120V190 10SM -RA SCT040 OVC080 10/08 A2958 RMK SC3AC5 SLP021
Extra information Display Charts and CFS
Display NOTAMS
Runway Length Width Surface Elevation
16 8605 ft 200 ft ASP 110 ft
34 8605 ft 200 ft ASP 71 ft